START_TIME,STEP,MOV.,M15,t_acc.,M20,t_acc.
1979-07-02 18:00:44.770 ,0,1,0.,24.0,0.,24.0
1979-07-02 18:01:08.770 ,4,1,0.,24.0,0.,24.0
1979-07-02 18:01:32.770 ,7,1,0.,24.0,0.,24.0
1979-07-02 18:01:56.770 ,3,1,0.,24.0,0.,24.0
1979-07-02 18:02:20.770 ,0,1,0.,24.0,0.,24.0
1979-07-02 18:02:44.770 ,4,1,0.,24.0,0.,24.0
1979-07-02 18:03:08.770 ,7,1,0.,24.0,0.,24.0
1979-07-02 18:03:32.770 ,3,1,0.,24.0,0.,24.0
1979-07-02 18:03:56.770 ,0,1,0.,24.0,0.,24.0
1979-07-02 18:04:20.770 ,4,1,0.,24.0,0.,24.0
1979-07-02 18:04:44.770 ,7,1,0.,24.0,0.,24.0
1979-07-02 18:05:08.770 ,3,1,0.,24.0,0.,24.0
1979-07-02 18:05:32.770 ,0,1,0.,24.0,0.,24.0
1979-07-02 18:05:56.770 ,0,0,0.,24.0,0.,24.0
1979-07-02 18:06:20.770 ,0,0,0.,24.0,0.,24.0
1979-07-02 18:06:44.770 ,5,1,0.,24.0,0.,24.0
1979-07-02 18:07:08.770 ,5,0,0.,24.0,0.,24.0
1979-07-02 18:07:32.770 ,4,1,0.,24.0,0.,24.0
1979-07-02 18:07:56.770 ,4,0,0.,24.0,0.,24.0
1979-07-02 18:08:20.770 ,3,1,0.,24.0,0.,24.0
1979-07-02 18:08:44.770 ,3,0,0.,24.0,0.,24.0
1979-07-02 18:09:08.770 ,2,1,0.,24.0,0.,24.0
1979-07-02 18:09:32.770 ,2,0,0.,24.0,0.,24.0
1979-07-02 18:09:56.770 ,1,1,0.,24.0,0.,24.0
1979-07-02 18:10:20.770 ,1,0,0.,24.0,0.,24.0
1979-07-02 18:10:44.770 ,0,1,0.,24.0,0.,24.0
1979-07-02 18:11:08.770 ,0,0,0.,24.0,0.,24.0
1979-07-02 18:11:32.770 ,0,1,0.,24.0,0.,24.0
1979-07-02 18:11:56.770 ,0,0,0.,24.0,0.,24.0
1979-07-02 18:12:20.770 ,1,1,0.,24.0,0.,24.0
1979-07-02 18:12:44.770 ,1,0,0.,24.0,0.,24.0
1979-07-02 18:13:08.770 ,2,1,0.,24.0,0.,24.0
1979-07-02 18:13:32.770 ,2,0,0.,24.0,0.,24.0
1979-07-02 18:13:56.770 ,3,1,0.,24.0,0.,24.0
1979-07-02 18:14:20.770 ,3,0,0.,24.0,0.,24.0
1979-07-02 18:14:44.770 ,4,1,0.,24.0,0.,24.0
1979-07-02 18:15:08.770 ,4,0,0.,24.0,0.,24.0
1979-07-02 18:15:32.770 ,5,1,0.,24.0,0.,24.0
1979-07-02 18:15:56.770 ,5,0,0.,24.0,0.,24.0
1979-07-02 18:16:20.770 ,6,1,0.,24.0,0.,24.0
1979-07-02 18:16:44.770 ,6,0,0.,24.0,0.,24.0
1979-07-02 18:17:08.770 ,7,1,0.,24.0,0.,24.0
1979-07-02 18:17:32.770 ,7,0,0.,24.0,0.,24.0
1979-07-02 18:17:56.770 ,7,1,0.,24.0,0.,24.0
1979-07-02 18:18:20.770 ,7,0,0.,24.0,0.,24.0
1979-07-02 18:18:44.770 ,6,1,0.,24.0,0.,24.0
1979-07-02 18:19:08.770 ,6,0,0.,24.0,0.,24.0
1979-07-02 18:19:32.770 ,5,1,0.,24.0,0.,24.0
1979-07-02 18:19:56.770 ,5,0,0.,24.0,0.,24.0
1979-07-02 18:20:20.770 ,4,1,0.,24.0,0.,24.0
1979-07-02 18:20:44.770 ,4,0,0.,24.0,0.,24.0
1979-07-02 18:21:08.770 ,3,1,0.,24.0,0.,24.0
1979-07-02 18:21:32.770 ,3,0,0.,24.0,0.,24.0
1979-07-02 18:21:56.770 ,2,1,0.,24.0,0.,24.0
1979-07-02 18:22:20.770 ,2,0,0.,24.0,0.,24.0
1979-07-02 18:22:44.770 ,1,1,0.,24.0,0.,24.0
1979-07-02 18:23:08.770 ,1,0,0.,24.0,0.,24.0
1979-07-02 18:24:20.770 ,0,0,0.,24.0,0.,24.0
1979-07-02 18:24:44.770 ,0,0,0.,24.0,0.,24.0
1979-07-02 18:25:08.770 ,1,1,0.,24.0,0.,24.0
1979-07-02 18:25:32.770 ,1,0,0.,24.0,0.,24.0
1979-07-02 18:25:56.770 ,2,1,0.,24.0,0.,24.0
1979-07-02 18:26:20.770 ,2,0,0.,24.0,0.,24.0
1979-07-02 18:26:44.770 ,3,1,0.,24.0,0.,24.0
1979-07-02 18:27:08.770 ,3,0,0.,24.0,0.,24.0
1979-07-02 18:27:32.770 ,4,1,0.,24.0,0.,24.0
1979-07-02 18:27:56.770 ,4,0,0.,24.0,0.,24.0
1979-07-02 18:28:20.770 ,5,1,0.,24.0,0.,24.0
1979-07-02 18:28:44.770 ,5,0,0.,24.0,0.,24.0
1979-07-02 18:29:08.770 ,6,1,0.,24.0,0.,24.0
1979-07-02 18:29:32.770 ,6,0,0.,24.0,0.,24.0
1979-07-02 18:29:56.770 ,7,1,0.,24.0,0.,24.0
1979-07-02 18:30:20.770 ,7,0,0.,24.0,0.,24.0
1979-07-02 18:30:44.770 ,7,1,0.,24.0,0.,24.0
1979-07-02 18:31:08.770 ,7,0,0.,24.0,0.,24.0
1979-07-02 18:31:32.770 ,6,1,0.,24.0,0.,24.0
1979-07-02 18:31:56.770 ,6,0,0.,24.0,0.,24.0
1979-07-02 18:32:20.770 ,5,1,0.,24.0,0.,24.0
1979-07-02 18:32:44.770 ,5,0,0.,24.0,0.,24.0
1979-07-02 18:33:08.770 ,4,1,0.,24.0,0.,24.0
1979-07-02 18:33:32.770 ,4,0,0.,24.0,0.,24.0
1979-07-02 18:33:56.770 ,3,1,0.,24.0,0.,24.0
1979-07-02 18:34:20.770 ,3,0,0.,24.0,0.,24.0
1979-07-02 18:34:44.770 ,2,1,0.,24.0,0.,24.0
1979-07-02 18:35:08.770 ,2,0,0.,24.0,0.,24.0
1979-07-02 18:35:32.770 ,1,1,0.,24.0,0.,24.0
1979-07-02 18:35:56.770 ,1,0,0.,24.0,0.,24.0
1979-07-02 18:36:20.770 ,0,1,0.,24.0,0.,24.0
1979-07-02 18:36:44.770 ,0,0,0.,24.0,0.,24.0
1979-07-02 18:37:08.770 ,0,1,0.,24.0,0.,24.0
1979-07-02 18:37:32.770 ,0,0,0.,24.0,0.,24.0
1979-07-02 18:37:56.770 ,1,1,0.,24.0,0.,24.0
1979-07-02 18:38:20.770 ,1,0,0.,24.0,0.,24.0
1979-07-02 18:38:44.770 ,2,1,0.,24.0,0.,24.0
1979-07-02 18:39:08.770 ,2,0,0.,24.0,0.,24.0
1979-07-02 18:39:32.770 ,3,1,0.,24.0,0.,24.0
1979-07-02 18:39:56.770 ,3,0,0.,24.0,0.,24.0
1979-07-02 18:40:20.770 ,4,1,0.,24.0,0.,24.0
1979-07-02 18:40:44.770 ,4,0,0.,24.0,0.,24.0
1979-07-02 18:41:08.770 ,5,1,0.,24.0,0.,24.0
1979-07-02 18:41:32.770 ,5,0,0.,24.0,0.,24.0
1979-07-02 18:41:56.770 ,6,1,0.,24.0,0.,24.0
1979-07-02 18:42:20.770 ,6,0,0.,24.0,0.,24.0
1979-07-02 18:42:44.770 ,7,0,0.,24.0,0.,24.0
1979-07-02 18:43:08.770 ,7,0,0.,24.0,0.,24.0
1979-07-02 18:43:32.770 ,3,1,0.,24.0,0.,24.0
1979-07-02 18:43:56.770 ,0,1,0.,24.0,0.,24.0
1979-07-02 18:44:20.770 ,4,1,0.,24.0,0.,24.0
1979-07-02 18:44:44.770 ,7,1,0.,24.0,0.,24.0
1979-07-02 18:45:08.770 ,3,1,0.,24.0,0.,24.0
1979-07-02 18:45:32.770 ,0,1,0.,24.0,0.,24.0
1979-07-02 18:45:56.770 ,4,1,0.,24.0,0.,24.0
1979-07-02 18:46:20.770 ,7,1,0.,24.0,0.,24.0
1979-07-02 18:46:44.770 ,3,1,0.,24.0,0.,24.0
1979-07-02 18:47:08.770 ,0,1,0.,24.0,0.,24.0
1979-07-02 18:47:32.770 ,4,1,0.,24.0,0.,24.0
1979-07-02 18:47:56.770 ,7,1,0.,24.0,0.,24.0
1979-07-02 18:48:20.770 ,3,1,0.,24.0,0.,24.0
1979-07-02 18:48:44.770 ,0,1,0.,24.0,0.,24.0
1979-07-02 18:49:08.770 ,4,1,0.,24.0,0.,24.0
1979-07-02 18:49:32.770 ,7,1,0.,24.0,0.,24.0
1979-07-02 18:49:56.770 ,3,1,0.,24.0,0.,24.0
1979-07-02 18:50:20.770 ,0,1,0.,24.0,0.,24.0
1979-07-02 18:50:44.770 ,4,1,0.,24.0,0.,24.0
1979-07-02 18:51:08.770 ,7,1,0.,24.0,0.,24.0
1979-07-02 18:51:32.770 ,3,1,0.,24.0,0.,24.0
1979-07-02 18:51:56.770 ,0,1,0.,24.0,0.,24.0
1979-07-02 18:52:20.770 ,4,1,0.,24.0,0.,24.0
1979-07-02 18:52:44.770 ,7,1,0.,24.0,0.,24.0
1979-07-02 18:53:08.770 ,3,1,0.,24.0,0.,24.0
1979-07-02 18:53:32.770 ,0,1,0.,24.0,0.,24.0
1979-07-02 18:53:56.770 ,0,0,0.,24.0,0.,24.0
1979-07-02 18:54:20.770 ,0,0,0.,24.0,0.,24.0
1979-07-02 18:54:44.770 ,5,1,0.,24.0,0.,24.0
1979-07-02 18:55:08.770 ,5,0,0.,24.0,0.,24.0
1979-07-02 18:55:32.770 ,4,1,0.,24.0,0.,24.0
1979-07-02 18:55:56.770 ,4,0,0.,24.0,0.,24.0
1979-07-02 18:56:20.770 ,3,1,0.,24.0,0.,24.0
1979-07-02 18:56:44.770 ,3,0,0.,24.0,0.,24.0
1979-07-02 18:57:08.770 ,2,1,0.,24.0,0.,24.0
1979-07-02 18:57:32.770 ,2,0,0.,24.0,0.,24.0
1979-07-02 18:57:56.770 ,1,1,0.,24.0,0.,24.0
1979-07-02 18:58:20.770 ,1,0,0.,24.0,0.,24.0
1979-07-02 18:58:44.770 ,0,1,0.,24.0,0.,24.0
1979-07-02 18:59:08.770 ,0,0,0.,24.0,0.,24.0
1979-07-02 18:59:32.770 ,0,1,0.,24.0,0.,24.0
1979-07-02 18:59:56.770 ,0,0,0.,24.0,0.,24.0
1979-07-02 19:00:20.770 ,1,1,0.,24.0,0.,24.0
1979-07-02 19:00:44.770 ,1,0,0.,24.0,0.,24.0
1979-07-02 19:01:08.770 ,2,1,0.,24.0,0.,24.0
1979-07-02 19:01:32.770 ,2,0,0.,24.0,0.,24.0
1979-07-02 19:01:56.770 ,3,1,0.,24.0,0.,24.0
1979-07-02 19:02:20.770 ,3,0,0.,24.0,0.,24.0
1979-07-02 19:02:44.770 ,4,1,0.,24.0,0.,24.0
1979-07-02 19:03:08.770 ,4,0,0.,24.0,0.,24.0
1979-07-02 19:03:32.770 ,5,1,0.,24.0,0.,24.0
1979-07-02 19:03:56.770 ,0,0,0.,24.0,0.,24.0
1979-07-02 19:04:29.170 ,0,0,,0,,0
1979-07-02 19:04:44.770 ,0,0,0.,24.0,0.,24.0
1979-07-02 19:05:08.770 ,7,1,0.,24.0,0.,24.0
1979-07-02 19:05:32.770 ,7,0,0.,24.0,0.,24.0
1979-07-02 19:05:56.770 ,7,1,0.,24.0,0.,24.0
1979-07-02 19:06:20.770 ,7,0,0.,24.0,0.,24.0
1979-07-02 19:06:44.770 ,6,1,0.,24.0,0.,24.0
1979-07-02 19:07:08.770 ,6,0,0.,24.0,0.,24.0
1979-07-02 19:07:32.770 ,5,1,0.,24.0,0.,24.0
1979-07-02 19:07:56.770 ,5,0,0.,24.0,0.,24.0
1979-07-02 19:08:20.770 ,4,1,0.,24.0,0.,24.0
1979-07-02 19:08:44.770 ,4,0,0.,24.0,0.,24.0
1979-07-02 19:09:08.770 ,3,1,0.,24.0,0.,24.0
1979-07-02 19:09:32.770 ,3,0,0.,24.0,0.,24.0
1979-07-02 19:09:56.770 ,2,1,0.,24.0,0.,24.0
1979-07-02 19:10:20.770 ,2,0,0.,24.0,0.,24.0
1979-07-02 19:10:44.770 ,1,1,0.,24.0,0.,24.0
1979-07-02 19:11:08.770 ,0,0,,0,,0
1979-07-02 19:12:41.170 ,0,0,0.,24.0,0.,24.0
1979-07-02 19:12:44.770 ,0,0,0.,24.0,0.,24.0
1979-07-02 19:13:08.770 ,1,1,0.,24.0,0.,24.0
1979-07-02 19:13:32.770 ,1,0,0.,24.0,0.,24.0
1979-07-02 19:13:56.770 ,2,1,0.,24.0,0.,24.0
1979-07-02 19:14:20.770 ,2,0,0.,24.0,0.,24.0
1979-07-02 19:14:44.770 ,3,1,0.,24.0,0.,24.0
1979-07-02 19:15:08.770 ,3,0,0.,24.0,0.,24.0
1979-07-02 19:15:32.770 ,4,1,0.,24.0,0.,24.0
1979-07-02 19:15:56.770 ,4,0,0.,24.0,0.,24.0
1979-07-02 19:16:20.770 ,5,1,0.,24.0,0.,24.0
1979-07-02 19:16:44.770 ,5,0,0.,24.0,0.,24.0
1979-07-02 19:17:08.770 ,6,1,0.,24.0,0.,24.0
1979-07-02 19:17:32.770 ,6,0,0.,24.0,0.,24.0
1979-07-02 19:17:56.770 ,7,1,0.,24.0,0.,24.0
1979-07-02 19:18:20.770 ,7,0,0.,24.0,0.,24.0
1979-07-02 19:18:44.770 ,7,1,0.,24.0,0.,24.0
1979-07-02 19:19:08.770 ,7,0,0.,24.0,0.,24.0
1979-07-02 19:19:32.770 ,6,1,0.,24.0,0.,24.0
1979-07-02 19:19:56.770 ,6,0,0.,24.0,0.,24.0
1979-07-02 19:20:20.770 ,5,1,0.,24.0,0.,24.0
1979-07-02 19:20:44.770 ,5,0,0.,24.0,0.,24.0
1979-07-02 19:21:08.770 ,4,1,0.,24.0,0.,24.0
1979-07-02 19:21:32.770 ,4,0,0.,24.0,0.,24.0
1979-07-02 19:21:56.770 ,3,1,1.,24.0,0.,24.0
1979-07-02 19:22:20.770 ,0,0,,0,,0
1979-07-02 19:22:44.770 ,2,1,0.,24.0,0.,24.0
1979-07-02 19:23:08.770 ,2,0,0.,24.0,0.,24.0
1979-07-02 19:23:32.770 ,1,1,0.,24.0,0.,24.0
1979-07-02 19:23:56.770 ,1,0,0.,24.0,0.,24.0
1979-07-02 19:24:20.770 ,0,1,0.,24.0,0.,24.0
1979-07-02 19:24:44.770 ,0,0,0.,24.0,0.,24.0
1979-07-02 19:25:08.770 ,0,1,0.,24.0,0.,24.0
1979-07-02 19:25:32.770 ,0,0,0.,24.0,0.,24.0
1979-07-02 19:25:56.770 ,1,1,0.,24.0,0.,24.0
1979-07-02 19:26:20.770 ,1,0,0.,24.0,0.,24.0
1979-07-02 19:26:44.770 ,2,1,0.,24.0,0.,24.0
1979-07-02 19:27:08.770 ,2,0,0.,24.0,0.,24.0
1979-07-02 19:27:32.770 ,3,1,0.,24.0,0.,24.0
1979-07-02 19:27:56.770 ,3,0,0.,24.0,0.,24.0
1979-07-02 19:28:20.770 ,4,1,0.,24.0,0.,24.0
1979-07-02 19:28:44.770 ,4,0,0.,24.0,0.,24.0
1979-07-02 19:29:08.770 ,5,1,0.,24.0,0.,24.0
1979-07-02 19:29:32.770 ,5,0,0.,24.0,0.,24.0
1979-07-02 19:29:56.770 ,6,1,0.,24.0,0.,24.0
1979-07-02 19:30:20.770 ,6,0,0.,24.0,0.,24.0
1979-07-02 19:30:44.770 ,7,0,0.,24.0,0.,24.0
1979-07-02 19:31:08.770 ,7,0,0.,24.0,0.,24.0
1979-07-02 19:31:32.770 ,3,1,0.,24.0,0.,24.0
1979-07-02 19:31:56.770 ,0,1,0.,24.0,0.,24.0
1979-07-02 19:32:20.770 ,4,1,0.,24.0,0.,24.0
1979-07-02 19:32:44.770 ,7,1,0.,24.0,0.,24.0
1979-07-02 19:33:08.770 ,3,1,0.,24.0,0.,24.0
1979-07-02 19:33:32.770 ,0,1,0.,24.0,0.,24.0
1979-07-02 19:33:56.770 ,4,1,0.,24.0,0.,24.0
1979-07-02 19:34:20.770 ,0,0,,0,,0
1979-07-02 19:34:30.970 ,7,1,0.,24.0,0.,24.0
1979-07-02 19:34:44.770 ,3,1,0.,24.0,0.,24.0
1979-07-02 19:35:08.770 ,0,1,0.,24.0,0.,24.0
1979-07-02 19:35:32.770 ,4,1,0.,24.0,0.,24.0
1979-07-02 19:35:56.770 ,7,1,0.,24.0,0.,24.0
1979-07-02 19:36:20.770 ,3,1,0.,24.0,0.,24.0
1979-07-02 19:36:44.770 ,0,1,0.,24.0,0.,24.0
1979-07-02 19:37:08.770 ,4,1,0.,24.0,0.,24.0
1979-07-02 19:37:32.770 ,7,1,0.,24.0,0.,24.0
1979-07-02 19:37:56.770 ,3,1,0.,24.0,0.,24.0
1979-07-02 19:38:20.770 ,0,1,0.,24.0,0.,24.0
1979-07-02 19:38:44.770 ,4,1,0.,24.0,0.,24.0
1979-07-02 19:39:08.770 ,7,1,0.,24.0,0.,24.0
1979-07-02 19:39:32.770 ,3,1,0.,24.0,0.,24.0
1979-07-02 19:39:56.770 ,0,1,0.,24.0,0.,24.0
1979-07-02 19:40:20.770 ,4,1,0.,24.0,0.,24.0
1979-07-02 19:40:44.770 ,7,1,0.,24.0,0.,24.0
1979-07-02 19:41:08.770 ,3,1,0.,24.0,0.,24.0
1979-07-02 19:41:32.770 ,0,1,0.,24.0,0.,24.0
1979-07-02 19:41:56.770 ,0,0,0.,24.0,0.,24.0
1979-07-02 19:42:20.770 ,0,0,0.,24.0,0.,24.0
1979-07-02 19:42:44.770 ,5,1,0.,24.0,0.,24.0
1979-07-02 19:43:08.770 ,5,0,0.,24.0,0.,24.0
1979-07-02 19:43:32.770 ,4,1,0.,24.0,0.,24.0
1979-07-02 19:43:56.770 ,4,0,0.,24.0,0.,24.0
1979-07-02 19:44:20.770 ,3,1,0.,24.0,0.,24.0
1979-07-02 19:44:44.770 ,3,0,0.,24.0,0.,24.0
1979-07-02 19:45:08.770 ,2,1,0.,24.0,0.,24.0
1979-07-02 19:45:32.770 ,2,0,0.,24.0,0.,24.0
1979-07-02 19:45:56.770 ,1,1,0.,24.0,0.,24.0
1979-07-02 19:46:20.770 ,1,0,0.,24.0,0.,24.0
1979-07-02 19:46:44.770 ,0,1,0.,24.0,0.,24.0
1979-07-02 19:47:08.770 ,0,0,0.,24.0,0.,24.0
1979-07-02 19:47:32.770 ,0,1,0.,24.0,0.,24.0
1979-07-02 19:47:56.770 ,0,0,0.,24.0,0.,24.0
1979-07-02 19:48:20.770 ,1,1,0.,24.0,0.,24.0
1979-07-02 19:48:44.770 ,1,0,0.,24.0,0.,24.0
1979-07-02 19:49:08.770 ,2,1,0.,24.0,0.,24.0
1979-07-02 19:49:32.770 ,2,0,0.,24.0,0.,24.0
1979-07-02 19:49:56.770 ,3,1,0.,24.0,0.,24.0
1979-07-02 19:50:20.770 ,3,0,0.,24.0,0.,24.0
1979-07-02 19:50:44.770 ,4,1,0.,24.0,0.,24.0
1979-07-02 19:51:08.770 ,4,0,0.,24.0,0.,24.0
1979-07-02 19:51:32.770 ,5,1,0.,24.0,0.,24.0
1979-07-02 19:51:56.770 ,5,0,0.,24.0,0.,24.0
1979-07-02 19:52:20.770 ,6,1,0.,24.0,0.,24.0
1979-07-02 19:52:44.770 ,6,0,0.,24.0,0.,24.0
1979-07-02 19:53:08.770 ,7,1,0.,24.0,0.,24.0
1979-07-02 19:53:32.770 ,7,0,0.,24.0,0.,24.0
1979-07-02 19:53:56.770 ,7,1,0.,24.0,0.,24.0
1979-07-02 19:54:20.770 ,7,0,0.,24.0,0.,24.0
1979-07-02 19:54:44.770 ,6,1,0.,24.0,0.,24.0
1979-07-02 19:55:08.770 ,6,0,0.,24.0,0.,24.0
1979-07-02 19:55:32.770 ,5,1,0.,24.0,0.,24.0
1979-07-02 19:55:56.770 ,5,0,0.,24.0,0.,24.0
1979-07-02 19:56:20.770 ,4,1,0.,24.0,0.,24.0
1979-07-02 19:56:44.770 ,4,0,0.,24.0,0.,24.0
1979-07-02 19:57:08.770 ,3,1,0.,24.0,0.,24.0
1979-07-02 19:57:32.770 ,3,0,0.,24.0,0.,24.0
1979-07-02 19:57:56.770 ,2,1,0.,24.0,0.,24.0
1979-07-02 19:58:20.770 ,2,0,0.,24.0,0.,24.0
1979-07-02 19:58:44.770 ,1,1,0.,24.0,0.,24.0
1979-07-02 19:59:08.770 ,1,0,0.,24.0,0.,24.0
1979-07-02 19:59:32.770 ,0,1,0.,24.0,0.,24.0
1979-07-02 19:59:56.770 ,0,0,0.,24.0,0.,24.0
1979-07-02 20:00:20.770 ,0,1,0.,24.0,0.,24.0
1979-07-02 20:00:44.770 ,0,0,0.,24.0,0.,24.0
1979-07-02 20:01:08.770 ,1,1,0.,24.0,0.,24.0
1979-07-02 20:01:32.770 ,1,0,0.,24.0,0.,24.0
1979-07-02 20:01:56.770 ,2,1,0.,24.0,0.,24.0
1979-07-02 20:02:20.770 ,2,0,0.,24.0,0.,24.0
1979-07-02 20:02:44.770 ,3,1,0.,24.0,0.,24.0
1979-07-02 20:03:08.770 ,3,0,0.,24.0,0.,24.0
1979-07-02 20:03:32.770 ,4,1,0.,24.0,0.,24.0
1979-07-02 20:03:56.770 ,4,0,0.,24.0,0.,24.0
1979-07-02 20:04:20.770 ,5,1,0.,24.0,0.,24.0
1979-07-02 20:04:44.770 ,5,0,0.,24.0,0.,24.0
1979-07-02 20:05:08.770 ,6,1,0.,24.0,0.,24.0
1979-07-02 20:05:32.770 ,6,0,0.,24.0,0.,24.0
1979-07-02 20:05:56.770 ,7,1,0.,24.0,0.,24.0
1979-07-02 20:06:20.770 ,7,0,0.,24.0,0.,24.0
1979-07-02 20:06:44.770 ,7,1,0.,24.0,0.,24.0
1979-07-02 20:07:08.770 ,7,0,0.,24.0,0.,24.0
1979-07-02 20:07:32.770 ,6,1,0.,24.0,0.,24.0
1979-07-02 20:07:56.770 ,6,0,0.,24.0,0.,24.0
1979-07-02 20:08:20.770 ,5,1,0.,24.0,0.,24.0
1979-07-02 20:08:44.770 ,5,0,0.,24.0,0.,24.0
1979-07-02 20:09:08.770 ,4,1,0.,24.0,0.,24.0
1979-07-02 20:09:32.770 ,4,0,0.,24.0,0.,24.0
1979-07-02 20:09:56.770 ,3,1,0.,24.0,0.,24.0
1979-07-02 20:10:20.770 ,3,0,0.,24.0,0.,24.0
1979-07-02 20:10:44.770 ,2,1,0.,24.0,0.,24.0
1979-07-02 20:11:08.770 ,2,0,0.,24.0,0.,24.0
1979-07-02 20:11:32.770 ,1,1,0.,24.0,0.,24.0
1979-07-02 20:11:56.770 ,1,0,0.,24.0,0.,24.0
1979-07-02 20:12:20.770 ,0,1,0.,24.0,0.,24.0
1979-07-02 20:12:44.770 ,0,0,0.,24.0,0.,24.0
1979-07-02 20:13:08.770 ,0,1,0.,24.0,0.,24.0
1979-07-02 20:13:32.770 ,0,0,0.,24.0,0.,24.0
1979-07-02 20:13:56.770 ,1,1,0.,24.0,1.,24.0
1979-07-02 20:14:20.770 ,1,0,0.,24.0,0.,24.0
1979-07-02 20:14:44.770 ,2,1,0.,24.0,0.,24.0
1979-07-02 20:15:08.770 ,2,0,0.,24.0,0.,24.0
1979-07-02 20:15:32.770 ,3,1,0.,24.0,0.,24.0
1979-07-02 20:15:56.770 ,3,0,0.,24.0,0.,24.0
1979-07-02 20:16:20.770 ,4,1,0.,24.0,0.,24.0
1979-07-02 20:16:44.770 ,4,0,0.,24.0,0.,24.0
1979-07-02 20:17:08.770 ,5,1,0.,24.0,0.,24.0
1979-07-02 20:17:32.770 ,5,0,0.,24.0,0.,24.0
1979-07-02 20:17:56.770 ,6,1,0.,24.0,0.,24.0
1979-07-02 20:18:20.770 ,6,0,0.,24.0,0.,24.0
1979-07-02 20:18:44.770 ,7,0,0.,24.0,0.,24.0
1979-07-02 20:19:08.770 ,7,0,0.,24.0,0.,24.0
1979-07-02 20:19:32.770 ,3,1,0.,24.0,0.,24.0
1979-07-02 20:19:56.770 ,0,1,0.,24.0,0.,24.0
1979-07-02 20:20:20.770 ,4,1,0.,24.0,0.,24.0
1979-07-02 20:20:44.770 ,7,1,0.,24.0,0.,24.0
1979-07-02 20:21:08.770 ,3,1,0.,24.0,0.,24.0
1979-07-02 20:21:32.770 ,0,1,0.,24.0,0.,24.0
1979-07-02 20:21:56.770 ,4,1,0.,24.0,0.,24.0
1979-07-02 20:22:20.770 ,7,1,0.,24.0,0.,24.0
1979-07-02 20:22:44.770 ,3,1,0.,24.0,0.,24.0
1979-07-02 20:23:08.770 ,0,1,0.,24.0,0.,24.0
1979-07-02 20:23:32.770 ,4,1,0.,24.0,0.,24.0
1979-07-02 20:23:56.770 ,7,1,0.,24.0,0.,24.0
1979-07-02 20:24:20.770 ,3,1,0.,24.0,0.,24.0
1979-07-02 20:24:44.770 ,0,1,0.,24.0,0.,24.0
1979-07-02 20:25:08.770 ,4,1,0.,24.0,0.,24.0
1979-07-02 20:25:32.770 ,7,1,0.,24.0,0.,24.0
1979-07-02 20:25:56.770 ,3,1,0.,24.0,0.,24.0
1979-07-02 20:26:20.770 ,0,1,0.,24.0,0.,24.0
1979-07-02 20:26:44.770 ,4,1,0.,24.0,0.,24.0
1979-07-02 20:27:08.770 ,7,1,0.,24.0,0.,24.0
1979-07-02 20:27:32.770 ,3,1,0.,24.0,0.,24.0
1979-07-02 20:27:56.770 ,0,1,0.,24.0,0.,24.0
1979-07-02 20:28:20.770 ,4,1,0.,24.0,0.,24.0
1979-07-02 20:28:44.770 ,7,1,0.,24.0,0.,24.0
1979-07-02 20:29:08.770 ,3,1,0.,24.0,0.,24.0
1979-07-02 20:29:32.770 ,0,1,0.,24.0,0.,24.0
1979-07-02 20:29:56.770 ,0,0,0.,24.0,0.,24.0
1979-07-02 20:30:20.770 ,0,0,0.,24.0,0.,24.0
1979-07-02 20:30:44.770 ,5,1,0.,24.0,0.,24.0
1979-07-02 20:31:08.770 ,5,0,0.,24.0,0.,24.0
1979-07-02 20:31:32.770 ,4,1,0.,24.0,0.,24.0
1979-07-02 20:31:56.770 ,4,0,0.,24.0,0.,24.0
1979-07-02 20:32:20.770 ,3,1,0.,24.0,0.,24.0
1979-07-02 20:32:44.770 ,3,0,0.,24.0,0.,24.0
1979-07-02 20:33:08.770 ,2,1,0.,24.0,0.,24.0
1979-07-02 20:33:32.770 ,2,0,0.,24.0,0.,24.0
1979-07-02 20:33:56.770 ,1,1,0.,24.0,0.,24.0
1979-07-02 20:34:20.760 ,1,0,0.,24.0,0.,24.0
1979-07-02 20:35:32.760 ,0,0,0.,24.0,0.,24.0
1979-07-02 20:35:56.760 ,0,0,0.,24.0,0.,24.0
1979-07-02 20:36:20.760 ,1,1,0.,24.0,0.,24.0
1979-07-02 20:36:44.760 ,1,0,0.,24.0,0.,24.0
1979-07-02 20:37:08.760 ,2,1,0.,24.0,0.,24.0
1979-07-02 20:37:32.760 ,2,0,0.,24.0,0.,24.0
1979-07-02 20:37:56.760 ,3,1,0.,24.0,0.,24.0
1979-07-02 20:38:20.760 ,3,0,0.,24.0,0.,24.0
1979-07-02 20:38:44.760 ,4,1,0.,24.0,0.,24.0
1979-07-02 20:39:08.760 ,4,0,0.,24.0,0.,24.0
1979-07-02 20:39:32.760 ,5,1,0.,24.0,0.,24.0
1979-07-02 20:39:56.760 ,5,0,0.,24.0,0.,24.0
1979-07-02 20:40:20.760 ,6,1,0.,24.0,0.,24.0
1979-07-02 20:40:44.760 ,6,0,0.,24.0,0.,24.0
1979-07-02 20:41:08.760 ,7,1,0.,24.0,0.,24.0
1979-07-02 20:41:32.760 ,7,0,0.,24.0,0.,24.0
1979-07-02 20:41:56.760 ,7,1,0.,24.0,0.,24.0
1979-07-02 20:42:20.760 ,7,0,0.,24.0,0.,24.0
1979-07-02 20:42:44.760 ,6,1,0.,24.0,0.,24.0
1979-07-02 20:43:08.760 ,6,0,0.,24.0,0.,24.0
1979-07-02 20:43:32.760 ,5,1,0.,24.0,0.,24.0
1979-07-02 20:43:56.760 ,5,0,0.,24.0,0.,24.0
1979-07-02 20:44:20.760 ,4,1,0.,24.0,0.,24.0
1979-07-02 20:44:44.760 ,4,0,0.,24.0,0.,24.0
1979-07-02 20:45:08.760 ,3,1,0.,24.0,0.,24.0
1979-07-02 20:45:32.760 ,3,0,0.,24.0,0.,24.0
1979-07-02 20:45:56.760 ,2,1,0.,24.0,0.,24.0
1979-07-02 20:46:20.760 ,2,0,0.,24.0,0.,24.0
1979-07-02 20:46:44.760 ,1,1,0.,24.0,0.,24.0
1979-07-02 20:47:08.760 ,1,0,0.,24.0,0.,24.0
1979-07-02 20:47:32.760 ,0,1,0.,24.0,0.,24.0
1979-07-02 20:47:56.760 ,0,0,0.,24.0,0.,24.0
1979-07-02 20:48:20.760 ,0,1,0.,24.0,0.,24.0
1979-07-02 20:48:44.760 ,0,0,0.,24.0,0.,24.0
1979-07-02 20:49:08.760 ,1,1,0.,24.0,0.,24.0
1979-07-02 20:49:32.760 ,1,0,0.,24.0,0.,24.0
1979-07-02 20:49:56.760 ,2,1,0.,24.0,0.,24.0
1979-07-02 20:50:20.760 ,2,0,0.,24.0,0.,24.0
1979-07-02 20:50:44.760 ,3,1,0.,24.0,0.,24.0
1979-07-02 20:51:08.760 ,3,0,0.,24.0,0.,24.0
1979-07-02 20:51:32.760 ,4,1,0.,24.0,0.,24.0
1979-07-02 20:51:56.760 ,4,0,0.,24.0,0.,24.0
1979-07-02 20:52:20.760 ,5,1,0.,24.0,0.,24.0
1979-07-02 20:52:44.760 ,5,0,0.,24.0,0.,24.0
1979-07-02 20:53:08.760 ,6,1,0.,24.0,0.,24.0
1979-07-02 20:53:32.760 ,6,0,0.,24.0,0.,24.0
1979-07-02 20:53:56.760 ,7,1,0.,24.0,0.,24.0
1979-07-02 20:54:20.760 ,7,0,0.,24.0,0.,24.0
1979-07-02 20:54:44.760 ,7,1,0.,24.0,0.,24.0
1979-07-02 20:55:08.760 ,7,0,0.,24.0,0.,24.0
1979-07-02 20:55:32.760 ,6,1,0.,24.0,0.,24.0
1979-07-02 20:55:56.760 ,6,0,0.,24.0,0.,24.0
1979-07-02 20:56:20.760 ,5,1,0.,24.0,0.,24.0
1979-07-02 20:56:44.760 ,5,0,0.,24.0,0.,24.0
1979-07-02 20:57:08.760 ,4,1,0.,24.0,0.,24.0
1979-07-02 20:57:32.760 ,4,0,0.,24.0,0.,24.0
1979-07-02 20:57:56.760 ,3,1,0.,24.0,0.,24.0
1979-07-02 20:58:20.760 ,3,0,0.,24.0,0.,24.0
1979-07-02 20:58:44.760 ,2,1,0.,24.0,0.,24.0
1979-07-02 20:59:08.760 ,2,0,0.,24.0,0.,24.0
1979-07-02 20:59:32.760 ,1,1,0.,24.0,0.,24.0
1979-07-02 20:59:56.760 ,1,0,0.,24.0,0.,24.0
1979-07-02 21:00:20.760 ,0,1,0.,24.0,0.,24.0
